Location: Unspecified
(48.8656°N, 0.0000°E)
Time: 16:10:16
(UTC+00:00)

Transit 2A Rocket - Pass Details

Date: 20 June 2019
Orbit: 588 x 915 km, 66.7° (Epoch: 21 July)

Event Time Altitude Azimuth Distance (km) Brightness Sun altitude
Rises 15:24:40 0° 311° (NW) 3,477 8.8 42.9°
Reaches altitude 10° 15:28:54 10° 339° (NNW) 2,474 7.8 42.3°
Maximum altitude 15:31:19 13° 4° (N) 2,247 7.4 41.9°
Drops below altitude 10° 15:33:41 10° 30° (NNE) 2,385 7.4 41.5°
Sets 15:37:35 0° 59° (ENE) 3,228 7.8 40.9°
